301  
SXUS52 KJAX 160512  
OSOJAX  
OTHER SURFACE OBSERVATIONS  
NATIONAL WEATHER SERVICE JACKSONVILLE FL  
1200 AM EST SAT DEC 16 2017  
 
FLZ020>025-030>033-035>038-040-160600-   
..FLORIDA
 
 
 
CITY SKY/WX TMP DP RH WIND PRES REMARKS  
CECIL FIELD CLOUDY 55 39 54 MISG 30.17S  
HERLONG FIELD NOT AVBL  
FERNANDINA BCH NOT AVBL  
LAKE CITY CLOUDY 52 41 66 NW7 30.19R  
JUNIPER SPGS NOT AVBL  
BUNNELL NOT AVBL  
KEYSTONE HGTS CLOUDY 54 50 87 CALM 30.17S  

 
 
GAZ132>136-149>154-162>166-160600-   
..GEORGIA
 
 
 
CITY SKY/WX TMP DP RH WIND PRES REMARKS  
JESUP FAIR 52 32 46 NW8 30.20R  
HOMERVILLE MOCLDY 46 36 66 N5 30.21S  
SWAINSBORO FAIR 37 28 70 W5 30.21R WCI 34  
CORDELE NOT AVBL  
EASTMAN FAIR 40 20 45 CALM 30.25S  

 
 
PLEASE NOTE: THESE OBSERVATIONS ARE NOT QUALITY CONTROLLED AND MAY  
NOT BE AVAILABLE AT ALL TIMES.  

 
 
 
CLICK HERE TO GO TO PREVIOUS BULLETINS.

The Nexlab FL Page
The Nexlab GA Page Main Text Page